Location: Caoria
(46.2000°N, 11.6833°E)
Time: 03:10:00
(UTC+00:00)

Daily predictions for brighter satellites

Satellite Brightness Start Highest point End
(mag) Time Altitude Azimuth Time Altitude Azimuth Time Altitude Azimuth
Cosmos 2082 Rocket 4.4 01:29:19 21° NNE 01:29:19 21° NNE 01:31:09 10° NNE
USA 267 4.4 01:26:20 10° NE 01:30:05 37° ENE 01:30:05 37° ENE
Lacrosse 4 Rocket 4.1 02:15:31 17° E 02:15:31 17° E 02:16:54 10° E
Cosmos 1745 Rocket 4.5 02:28:57 10° N 02:35:11 58° ENE 02:39:31 21° SSE
MSX 4.2 02:33:53 10° NNE 02:38:23 57° N 02:38:23 57° N
Lacrosse 5 2.9 02:42:08 43° NNE 02:42:08 43° NNE 02:46:54 10° E
Cosmos 2360 Rocket 2.6 02:42:47 10° NNW 02:48:27 62° ENE 02:54:04 10° SE
ALOS 4.3 02:44:45 10° NE 02:48:37 25° E 02:51:39 14° SE
USA 238 DEB 4.4 02:46:14 10° NW 02:53:20 57° NE 03:00:45 10° ESE
USA 238 4.4 02:46:20 10° NW 02:53:26 57° NE 03:00:49 10° ESE
ARIANE 5 R/B 3.6 02:50:21 10° N 02:53:20 35° N 02:53:20 35° N
CZ-2C R/B 2.7 02:55:07 10° NNE 02:59:46 60° E 02:59:46 60° E
Cosmos 1386 Rocket 4.4 03:00:26 10° N 03:06:52 87° W 03:12:10 16° S
CZ-4C R/B 4.3 03:04:19 10° SSE 03:07:46 20° ESE 03:11:37 10° ENE
H-2A R/B 3.9 03:05:54 10° SE 03:09:36 30° ENE 03:13:16 10° N
SeaSat 1 4.3 03:05:32 10° ESE 03:09:46 30° NE 03:14:01 10° N
Cosmos 2333 Rocket 3.3 03:04:32 10° NNW 03:10:04 44° NE 03:15:34 10° SE
Cosmos 2082 Rocket 4.0 03:11:10 19° NNW 03:11:10 19° NNW 03:14:22 10° N
Cosmos 1842 Rocket 4.5 03:13:02 39° N 03:13:02 39° N 03:15:50 10° N
Spot 4 Rocket 4.2 03:07:42 10° N 03:12:07 58° NNW 03:12:07 58° NNW
ADEOS II 4.2 03:09:56 10° NNW 03:11:05 14° NNW 03:11:05 14° NNW
USA 267 3.7 03:09:29 10° NE 03:15:42 48° NNW 03:17:26 39° WNW
Cosmos 1484 Rocket 4.4 03:14:27 10° NNE 03:17:48 32° E 03:19:29 22° SE
IDEFIX/ARIANE 42P 4.0 03:14:11 10° N 03:16:53 24° NNW 03:16:53 24° NNW
Cosmos 2251 Rocket 4.1 03:18:56 27° S 03:21:42 56° ESE 03:26:58 10° NNE
BREEZE-M DEB (TANK) 3.2 03:22:53 71° W 03:23:18 80° NNW 03:26:19 10° ENE
NOSS 3-2 (A) 4.0 03:15:56 10° NW 03:23:29 90° NNE 03:32:04 10° SE
Cosmos 883 Rocket 4.5 03:20:37 16° S 03:25:36 79° E 03:31:44 10° N
Cosmos 1553 Rocket 4.2 03:26:48 47° W 03:27:04 48° WNW 03:33:08 10° N
Geosat 4.3 03:24:50 10° NNE 03:29:51 64° ESE 03:32:19 30° S
Cosmos 2219 Rocket 2.9 03:27:44 10° NNW 03:33:20 56° ENE 03:38:53 10° SE
COSMOS 2487 2.8 03:35:20 57° ESE 03:35:21 57° ESE 03:38:44 10° NNE
PAYLOAD A 4.2 03:34:27 10° N 03:39:38 56° WNW 03:40:52 46° WSW
CENTAUR R/B 3.3 03:32:22 10° NW 03:40:30 83° NE 03:49:26 10° SE
COSMOS 2428 3.4 03:35:21 10° NNW 03:40:59 55° ENE 03:46:34 10° SE
Cosmos 1606 2.6 03:42:18 63° SSW 03:42:53 86° W 03:46:49 10° N
Cosmos 2315 Rocket 3.9 03:37:58 10° S 03:44:10 89° E 03:50:24 10° N
PSLV R/B 3.5 03:42:09 10° N 03:46:30 65° WNW 03:47:30 49° SW
BREEZE-M DEB (TANK) 3.8 03:50:58 20° NNE 03:50:58 20° NNE 03:52:07 10° NE
USA 234 3.9 03:45:14 10° S 03:50:52 31° SW 03:51:15 30° WSW
BREEZE M DEB (TANK) 2.3 03:51:34 46° NNW 03:52:02 53° NNE 03:57:14 10° E
Lacrosse 4 Rocket 1.6 03:51:56 48° WSW 03:52:12 49° WSW 03:56:25 10° S
METEOR-M 4.2 03:51:12 10° NNE 03:56:34 82° ESE 04:01:54 10° SSW
ATLAS 5 CENTAUR R/B 2.9 03:55:40 10° S 03:59:11 33° ESE 04:03:04 10° NE
ISS -2.8 03:58:45 32° NNW 03:59:46 42° NNE 04:03:00 10° E
Cosmos 1805 Rocket 3.5 03:55:36 10° NNW 04:00:02 64° W 04:04:26 10° S
NOSS 3-4 (A) 4.2 03:55:37 10° SSW 04:01:12 49° ESE 04:07:09 10° NE
NOSS 3-4 (C) 4.2 03:55:43 10° SSW 04:01:17 49° ESE 04:07:13 10° NE
Cosmos 2221 3.9 04:04:42 22° NW 04:04:42 22° NW 04:07:21 10° NNW
Cosmos 2322 3.6 03:58:21 10° NNW 04:04:02 72° WSW 04:09:40 10° SSE
NOSS 3-2 (C) 4.0 03:56:34 10° NW 04:04:08 83° SW 04:12:44 10° SSE
Cosmos 1992 Rocket 4.3 03:59:38 10° NW 04:04:29 39° WSW 04:09:16 10° S
COSMO-SKYMED 1 3.3 04:00:48 10° SSE 04:05:02 55° ENE 04:09:18 10° N
Cosmos 1933 3.4 04:02:59 10° S 04:07:00 80° E 04:11:04 10° N
Cosmos 2074 Rocket 4.4 04:00:52 10° N 04:07:04 65° E 04:13:13 10° SSE
FENGYUN 3A 3.7 04:04:58 10° N 04:10:19 59° WNW 04:15:39 10° SSW
Cosmos 2344 3.7 04:06:15 23° WSW 04:10:58 59° NW 04:19:00 10° NE
BREEZE-M DEB (TANK) 3.9 04:08:38 23° WNW 04:11:28 77° NNE 04:27:42 10° ESE
ATLAS 2AS CENTAUR R/B 3.9 04:08:34 10° S 04:16:05 50° ESE 04:23:32 10° NE
CBERS 1 LM4 rocket 4.3 04:13:40 10° N 04:18:25 61° WNW 04:23:04 10° SSW
Landsat 5 4.1 04:18:43 26° WSW 04:19:27 28° W 04:22:52 10° NW
Meteor 1-20 Rocket 4.2 04:14:30 10° NNW 04:20:12 77° W 04:25:58 10° S
SJ-12 4.1 04:17:37 10° NNE 04:21:42 75° ESE 04:25:45 10° S
Sich 1 3.2 04:17:32 10° NNW 04:21:49 49° W 04:26:02 10° SSW
Cosmos 1666 Rocket 3.4 04:19:09 10° NNW 04:23:31 77° W 04:27:54 10° S
Lacrosse 5 2.0 04:21:22 16° WNW 04:25:10 51° SW 04:30:03 10° SSE
ALOS 2.7 04:21:48 10° N 04:26:08 39° WNW 04:30:10 12° SW
ADEOS 3.5 04:21:13 10° NNE 04:26:29 83° WNW 04:31:42 10° SSW
H-2A R/B 4.0 04:23:03 10° NNE 04:26:49 45° E 04:30:33 10° S
SKYMED 3 4.5 04:24:43 10° SSE 04:29:04 84° W 04:33:26 10° NNW
Cosmos 1140 Rocket 3.8 04:24:26 10° S 04:29:37 71° ESE 04:34:47 10° NNE
Meteor 1-31 Rocket 2.6 04:25:50 10° N 04:29:42 73° WNW 04:33:31 10° SSW
Cosmos 2184 Rocket 4.0 04:25:19 10° N 04:31:41 87° W 04:38:04 10° S
Cosmos 2360 Rocket 3.3 04:27:42 10° NW 04:31:57 22° W 04:36:10 10° SSW
CZ-4B R/B 3.8 04:28:59 10° NNE 04:33:28 61° ESE 04:37:55 10° S
Cosmos 192 4.3 04:29:09 10° NNW 04:34:05 67° WSW 04:38:59 10° S
CZ-4B R/B 1.0 04:31:41 10° S 04:34:47 82° WSW 04:37:51 10° NNW
CZ-2C R/B 3.8 04:34:22 10° NNW 04:37:35 18° WNW 04:39:09 16° W
Cosmos 2237 Rocket 2.9 04:32:24 10° NNW 04:38:01 58° ENE 04:43:35 10° SE
USA 276 2.1 04:36:12 21° W 04:38:09 70° NNW 04:41:21 10° ENE
CZ-2C R/B 4.3 04:33:07 10° SE 04:38:15 39° ENE 04:43:24 10° N
Cosmos 909 Rocket 4.1 04:31:53 10° SW 04:38:28 69° NW 04:44:46 10° NNE
Cosmos 1023 Rocket 4.5 04:37:01 10° SSW 04:42:14 88° WNW 04:47:26 10° NNE
USA 238 DEB 4.3 04:37:28 10° NW 04:44:11 41° WSW 04:51:08 10° S
USA 238 4.3 04:37:34 10° NW 04:44:17 41° WSW 04:51:14 10° S
H-2A R/B 2.9 04:41:57 10° SSW 04:45:33 27° W 04:49:08 10° NW
SeaSat 1 2.7 04:42:20 10° S 04:47:05 48° WSW 04:51:52 10° NW
Cosmos 1484 Rocket 4.1 04:49:15 10° NNW 04:52:01 20° WNW 04:54:47 10° WSW
NOSS 0 Rocket 3.9 04:46:25 10° NNW 04:52:35 78° WSW 04:58:46 10° SSE
Cosmos 1437 Rocket 2.9 04:49:02 10° SSW 04:53:03 57° WNW 04:57:02 10° N
SKYMED 2 3.8 04:48:56 10° S 04:53:07 47° W 04:57:19 10° NNW
ATLAS 3B R/B 3.4 04:46:30 10° NW 04:53:21 58° NE 05:00:30 10° SE
Cosmos 2333 Rocket 2.9 04:49:06 10° NW 04:54:11 33° WSW 04:59:14 10° SSW
Cosmos 1151 Rocket 3.2 04:50:22 10° SSW 04:54:34 49° WNW 04:58:45 10° N
CZ-4C R/B 2.1 04:50:29 10° SW 04:55:25 68° NW 05:01:26 10° NE
Cosmos 1633 Rocket 3.4 04:52:16 10° NNW 04:56:26 42° W 05:00:32 10° SSW
Cosmos 1782 2.9 04:52:37 10° SSW 04:56:28 53° WNW 05:00:22 10° N
Cosmos 2227 Rocket 3.7 04:51:43 10° S 04:57:00 42° ESE 05:02:19 10° NE
USA 267 4.3 04:52:08 10° ENE 04:57:53 34° N 05:03:38 10° WNW
SL-16 R/B 3.9 04:54:12 10° NNW 04:59:23 34° NE 05:04:32 10° ESE
MOS 1 Rocket 3.6 04:56:39 10° SSW 05:00:42 37° W 05:04:59 10° NNW
Cosmos 1242 Rocket 3.1 04:58:06 10° S 05:01:30 59° E 05:04:56 10° NNE
Meteor 1-26 Rocket 4.5 05:01:09 10° SSW 05:06:43 53° WNW 05:12:29 10° N
SAR-Lupe-4 3.7 05:03:10 10° SSE 05:06:44 82° ENE 05:10:19 10° NNW
Cosmos 1666 3.5 05:04:22 10° N 05:08:09 58° E 05:11:56 10° SSE
H-2A R/B 4.2 04:58:08 10° WSW 05:09:09 24° SSW 05:13:08 10° SSE
Meteor PRIRODA 3.8 05:08:00 10° N 05:11:38 52° WNW 05:15:16 10° SSW
Cosmos 1689 Rocket 1.9 05:08:52 10° SSE 05:11:40 83° WSW 05:14:32 10° NNW
Cosmos 2297 Rocket 2.6 05:06:52 10° SSW 05:12:28 70° ESE 05:18:06 10° NNE
Cosmos 2341 Rocket 4.4 05:06:16 10° N 05:12:29 71° E 05:18:41 10° SSE
Nadezhda 1 Rocket 4.0 05:09:43 10° SSW 05:15:47 64° W 05:22:00 10° N
Cosmos 2219 Rocket 3.2 05:12:23 10° NW 05:16:54 25° WSW 05:21:24 10° SSW
